period_start,C,m1,H,J0,J1,J2,J3,J4,J5,JA,JB,JC,JD,JJ,JK,JN,#
2014-07-25 00:01:14,-0.00,0.16,0.00,23.35,27.85,30.17,9.56,38.98,1016.13,2037.23,3375.99,3280.50,3562.03,500.23,496.14,14.47,0000 0000 0000 0000 000000
2014-07-25 00:06:15,0.02,0.16,0.00,23.36,27.85,30.14,9.52,38.97,1016.13,2037.37,3375.99,3280.40,3562.04,500.13,495.96,14.51,0000 0000 0000 0000 000000
2014-07-25 00:11:16,-0.00,0.16,0.00,23.34,27.84,30.15,9.65,39.21,1016.15,2037.32,3375.99,3280.26,3562.02,500.21,496.27,14.55,0000 0000 0000 0000 000000
2014-07-25 00:16:17,0.02,0.16,0.00,23.34,27.83,30.14,9.57,39.04,1016.16,2037.57,3375.98,3280.52,3562.08,499.75,495.65,14.59,0000 0000 0000 0000 000000
2014-07-25 00:21:18,0.01,0.16,0.00,23.35,27.82,30.14,9.51,38.83,1016.16,2037.75,3375.98,3280.69,3562.07,500.10,496.08,14.64,0000 0000 0000 0000 000000
2014-07-25 00:26:20,0.02,0.16,0.00,23.36,27.82,30.13,9.57,38.92,1016.14,2037.78,3375.96,3280.34,3562.03,500.32,496.04,14.68,0000 0000 0000 0000 000000
2014-07-25 00:31:21,0.00,0.16,0.00,23.36,27.82,30.12,9.58,38.86,1016.14,2037.90,3375.95,3280.49,3562.05,500.23,495.96,14.72,0000 0000 0000 0000 000000
2014-07-25 00:36:21,0.01,0.17,0.00,23.36,27.80,30.11,9.53,38.96,1016.15,2037.84,3375.76,3280.19,3562.02,499.75,495.66,14.76,0000 0000 0000 0000 000000
2014-07-25 00:41:22,0.02,0.17,0.00,23.33,27.80,30.10,9.59,38.91,1016.16,2037.88,3374.84,3280.02,3561.97,500.16,496.22,14.80,0000 0000 0000 0000 000000
2014-07-25 00:46:23,0.03,0.17,0.00,23.32,27.80,30.11,9.51,38.67,1016.17,2037.94,3374.02,3279.99,3561.51,499.68,495.60,14.85,0000 0000 0000 0000 000000
2014-07-25 00:51:24,0.00,0.17,0.00,23.30,27.79,30.11,9.52,38.88,1016.27,2037.97,3373.99,3279.93,3561.11,499.89,495.74,14.89,0000 0000 0000 0000 000000
2014-07-25 00:56:25,0.03,0.17,0.00,23.28,27.77,30.10,9.61,38.92,1016.17,2037.97,3373.65,3279.47,3561.02,500.03,496.19,14.93,0000 0000 0000 0000 000000
2014-07-25 01:01:26,0.01,0.17,0.00,23.28,27.77,30.11,9.57,38.85,1016.16,2037.98,3373.03,3279.04,3560.99,499.96,496.11,14.97,0000 0000 0000 0000 000000
2014-07-25 01:06:27,0.01,0.17,0.00,23.28,27.77,30.10,9.56,38.97,1016.16,2037.98,3372.97,3279.00,3560.79,500.03,496.00,15.01,0000 0000 0000 0000 000000
2014-07-25 01:11:29,0.04,0.17,0.00,23.29,27.76,30.08,9.60,39.02,1016.15,2037.99,3372.17,3278.66,3560.06,500.29,496.26,15.05,0000 0000 0000 0000 000000
2014-07-25 01:16:29,0.04,0.17,0.00,23.31,27.75,30.09,9.51,38.77,1016.18,2037.99,3371.59,3278.00,3559.58,500.10,495.96,15.10,0000 0000 0000 0000 000000
2014-07-25 01:21:31,0.03,0.18,0.00,23.29,27.75,30.07,9.60,38.82,1016.26,2037.99,3371.00,3277.34,3559.01,500.17,496.17,15.14,0000 0000 0000 0000 000000
2014-07-25 01:26:32,-0.00,0.18,0.00,23.30,27.75,30.05,9.66,38.93,1016.47,2037.99,3370.99,3277.25,3558.99,500.57,496.65,15.18,0000 0000 0000 0000 000000
2014-07-25 01:31:33,-0.00,0.18,0.00,23.30,27.74,30.05,9.59,38.88,1016.57,2037.99,3370.98,3277.34,3558.99,500.24,496.68,15.22,0000 0000 0000 0000 000000
2014-07-25 01:36:34,0.01,0.18,0.00,23.32,27.72,30.04,9.55,38.83,1016.60,2037.99,3370.91,3277.13,3558.99,500.01,496.13,15.26,0000 0000 0000 0000 000000
2014-07-25 01:41:35,0.00,0.18,0.00,23.31,27.72,30.04,9.56,38.72,1016.61,2037.99,3370.62,3277.04,3558.98,499.98,496.07,15.30,0000 0000 0000 0000 000000
2014-07-25 01:46:36,0.01,0.18,0.00,23.30,27.72,30.04,9.50,38.75,1016.62,2037.99,3370.25,3277.01,3558.97,499.90,496.34,15.35,0000 0000 0000 0000 000000
2014-07-25 01:51:37,0.00,0.18,0.00,23.32,27.72,30.03,9.62,38.88,1016.62,2037.99,3370.13,3277.01,3558.90,500.51,496.70,15.39,0000 0000 0000 0000 000000
2014-07-25 01:56:38,0.00,0.18,0.00,23.34,27.72,30.04,9.52,38.77,1016.62,2038.00,3370.05,3277.00,3558.69,499.84,495.99,15.43,0000 0000 0000 0000 000000
2014-07-25 02:01:39,-0.00,0.18,0.00,23.33,27.72,30.05,9.56,38.96,1016.62,2038.00,3370.03,3277.01,3558.70,500.24,496.34,15.47,0000 0000 0000 0000 000000
2014-07-25 02:06:40,0.01,0.18,0.00,23.34,27.71,30.02,9.53,38.67,1016.62,2038.00,3369.99,3276.97,3558.20,499.78,495.88,15.51,0000 0000 0000 0000 000000
2014-07-25 02:11:41,0.04,0.18,0.00,23.34,27.70,30.04,9.60,38.76,1016.63,2038.00,3369.51,3276.45,3557.92,500.22,496.51,15.56,0000 0000 0000 0000 000000
2014-07-25 02:16:42,0.02,0.18,0.00,23.34,27.70,30.05,9.60,38.77,1016.63,2038.01,3368.97,3276.00,3557.10,500.06,495.99,15.60,0000 0000 0000 0000 000000
2014-07-25 02:21:43,0.01,0.18,0.00,23.34,27.70,30.02,9.65,38.98,1016.71,2038.02,3368.57,3275.84,3557.00,500.57,496.78,15.64,0000 0000 0000 0000 000000
2014-07-25 02:26:44,0.03,0.18,0.00,23.33,27.70,30.02,9.58,38.73,1016.95,2038.02,3368.06,3275.19,3556.66,500.03,496.29,15.68,0000 0000 0000 0000 000000
2014-07-25 02:31:45,0.06,0.18,0.00,23.33,27.70,30.02,9.59,38.99,1016.91,2038.02,3367.28,3274.33,3555.69,499.69,495.82,15.72,0000 0000 0000 0000 000000
2014-07-25 02:36:46,0.04,0.19,0.00,23.32,27.70,30.03,9.51,39.00,1016.72,2038.03,3366.67,3273.78,3555.00,499.80,496.01,15.76,0000 0000 0000 0000 000000
2014-07-25 02:41:48,0.03,0.19,0.00,23.34,27.70,30.02,9.53,38.70,1016.71,2038.02,3366.04,3273.05,3554.18,500.26,496.45,15.81,0000 0000 0000 0000 000000
2014-07-25 02:46:49,0.03,0.19,0.00,23.35,27.70,30.02,9.58,38.94,1016.66,2038.01,3365.59,3272.74,3553.87,500.10,496.38,15.85,0000 0000 0000 0000 000000
2014-07-25 02:51:50,0.03,0.19,0.00,23.37,27.70,30.01,9.58,39.19,1016.69,2038.00,3365.01,3272.05,3553.13,499.89,496.05,15.89,0000 0000 0000 0000 000000
2014-07-25 02:56:51,0.00,0.19,0.00,23.42,27.70,30.00,9.54,39.40,1016.72,2038.01,3364.96,3272.00,3553.02,499.87,495.94,15.93,0000 0000 0000 0000 000000
2014-07-25 03:01:52,0.06,0.19,0.00,23.47,27.70,30.01,9.50,39.41,1016.74,2038.01,3364.11,3271.47,3552.40,499.39,495.57,15.97,0000 0000 0000 0000 000000
2014-07-25 03:06:53,0.05,0.19,0.00,23.51,27.70,30.01,9.50,39.33,1016.89,2038.01,3363.44,3270.65,3551.65,500.13,496.15,16.02,0000 0000 0000 0000 000000
2014-07-25 03:11:54,0.04,0.20,0.00,23.55,27.70,29.99,9.54,39.06,1016.99,2038.00,3362.69,3269.88,3550.74,500.14,496.22,16.06,0000 0000 0000 0000 000000
2014-07-25 03:16:55,0.05,0.20,0.00,23.59,27.70,30.00,9.57,39.04,1016.74,2038.00,3361.92,3269.02,3549.76,500.05,495.65,16.10,0000 0000 0000 0000 000000
2014-07-25 03:21:57,0.05,0.20,0.00,23.64,27.72,30.00,9.50,38.94,1016.64,2038.00,3361.07,3268.12,3549.01,499.74,495.39,16.14,0000 0000 0000 0000 000000
2014-07-25 03:26:58,0.02,0.20,0.00,23.69,27.72,30.00,9.50,38.80,1016.63,2038.00,3360.78,3267.88,3548.32,499.82,495.16,16.18,0000 0000 0000 0000 000000
2014-07-25 03:31:59,0.04,0.21,0.00,23.75,27.74,30.02,9.52,38.97,1016.64,2038.00,3360.01,3267.07,3547.72,499.88,495.55,16.23,0000 0000 0000 0000 000000
2014-07-25 03:37:00,0.04,0.21,0.00,23.77,27.75,30.04,9.48,38.88,1016.63,2038.00,3359.50,3266.66,3547.05,499.80,495.20,16.27,0000 0000 0000 0000 000000
2014-07-25 03:42:01,0.03,0.21,0.00,23.79,27.77,30.04,9.54,38.87,1016.63,2037.99,3358.89,3265.89,3546.27,499.97,495.53,16.31,0000 0000 0000 0000 000000
2014-07-25 03:47:02,0.05,0.21,0.00,23.82,27.79,30.07,9.56,38.82,1016.64,2037.99,3358.06,3265.05,3545.29,500.22,495.55,16.35,0000 0000 0000 0000 000000
2014-07-25 03:52:04,0.03,0.21,0.00,23.86,27.81,30.09,9.52,38.96,1016.65,2037.97,3357.57,3264.42,3544.92,499.86,495.21,16.39,0000 0000 0000 0000 000000
2014-07-25 03:57:05,0.08,0.22,0.00,23.90,27.82,30.12,9.56,38.92,1016.70,2037.95,3356.23,3263.44,3543.79,500.04,495.43,16.43,0000 0000 0000 0000 000000
2014-07-25 04:02:06,-0.03,0.22,0.00,23.93,27.85,30.14,9.52,38.79,1016.69,2037.66,3355.99,3263.01,3543.06,499.93,495.15,16.48,0000 0000 0000 0000 000000
2014-07-25 04:07:07,0.00,0.21,0.00,23.98,27.87,30.16,9.55,38.82,1016.69,2037.24,3355.40,3262.68,3542.71,500.15,495.23,16.52,0000 0000 0000 0000 000000
2014-07-25 04:12:08,0.01,0.22,0.00,24.01,27.90,30.19,9.51,38.77,1016.67,2037.07,3354.96,3262.03,3542.03,500.09,494.94,16.56,0000 0000 0000 0000 000000
2014-07-25 04:17:09,0.02,0.22,0.00,24.04,27.92,30.21,9.48,38.69,1016.76,2037.02,3354.29,3261.87,3541.69,499.79,494.97,16.60,0000 0000 0000 0000 000000
2014-07-25 04:22:10,0.03,0.22,0.00,24.06,27.94,30.24,9.49,38.86,1016.77,2037.00,3354.02,3261.15,3541.04,499.96,495.06,16.64,0000 0000 0000 0000 000000
2014-07-25 04:27:11,0.01,0.22,0.00,24.09,27.96,30.26,9.50,38.80,1016.74,2037.00,3353.82,3260.95,3540.77,499.97,494.96,16.69,0000 0000 0000 0000 000000
2014-07-25 04:32:12,0.05,0.22,0.00,24.13,27.99,30.28,9.57,38.83,1016.76,2037.00,3353.10,3260.21,3540.04,499.88,494.91,16.73,0000 0000 0000 0000 000000
2014-07-25 04:37:13,0.03,0.22,0.00,24.14,28.01,30.30,9.50,38.67,1016.70,2036.98,3352.66,3259.85,3539.42,500.08,494.96,16.77,0000 0000 0000 0000 000000
2014-07-25 04:42:14,0.04,0.22,0.00,24.19,28.04,30.34,9.54,38.80,1016.74,2036.96,3351.82,3259.01,3538.71,500.25,495.05,16.81,0000 0000 0000 0000 000000
2014-07-25 04:47:16,0.05,0.23,0.00,24.22,28.07,30.36,9.59,38.78,1016.82,2036.87,3350.87,3258.14,3537.77,500.32,494.93,16.85,0000 0000 0000 0000 000000
2014-07-25 04:52:17,0.02,0.23,0.00,24.26,28.10,30.38,9.53,38.80,1016.88,2036.64,3349.95,3257.27,3536.95,500.23,494.95,16.90,0000 0000 0000 0000 000000
2014-07-25 04:57:18,0.01,0.23,0.00,24.29,28.13,30.40,9.52,38.91,1016.88,2036.23,3349.05,3256.57,3536.10,500.13,494.80,16.94,0000 0000 0000 0000 000000
2014-07-25 05:02:19,0.02,0.23,0.00,24.33,28.16,30.43,9.52,38.67,1016.92,2036.05,3348.16,3256.00,3535.36,500.16,494.77,16.98,0000 0000 0000 0000 000000
2014-07-25 05:07:20,0.04,0.23,0.00,24.34,28.18,30.46,9.50,38.74,1017.02,2036.03,3347.24,3255.53,3535.00,499.98,494.62,17.02,0000 0000 0000 0000 000000
2014-07-25 05:12:21,0.01,0.23,0.00,24.35,28.21,30.49,9.51,38.56,1017.07,2036.01,3346.99,3255.02,3534.73,499.99,494.70,17.06,0000 0000 0000 0000 000000
2014-07-25 05:17:23,0.02,0.23,0.00,24.39,28.24,30.52,9.50,38.65,1016.99,2036.00,3346.42,3254.96,3534.05,499.75,494.28,17.11,0000 0000 0000 0000 000000
2014-07-25 05:22:24,0.02,0.23,0.00,24.42,28.26,30.54,9.48,38.54,1016.98,2036.00,3346.03,3254.52,3534.00,500.20,494.69,17.15,0000 0000 0000 0000 000000
2014-07-25 05:27:25,0.01,0.23,0.00,24.46,28.29,30.57,9.50,38.57,1017.03,2036.00,3346.01,3254.06,3533.87,500.05,494.45,17.19,0000 0000 0000 0000 000000
2014-07-25 05:32:26,0.01,0.23,0.00,24.51,28.32,30.60,9.54,38.67,1017.09,2035.99,3345.99,3254.00,3533.20,500.02,494.29,17.23,0000 0000 0000 0000 000000
2014-07-25 05:37:27,0.03,0.24,0.00,24.54,28.35,30.62,9.55,38.52,1017.10,2035.94,3345.28,3253.57,3532.98,499.98,494.34,17.27,0000 0000 0000 0000 000000
2014-07-25 05:42:29,0.01,0.24,0.00,24.57,28.37,30.66,9.50,38.69,1017.10,2035.80,3345.00,3253.02,3532.35,500.08,494.68,17.31,0000 0000 0000 0000 000000
2014-07-25 05:47:30,-0.04,0.24,0.00,24.59,28.40,30.68,9.43,38.47,1017.10,2035.40,3344.81,3252.82,3531.96,499.66,494.00,17.36,0000 0000 0000 0000 000000
2014-07-25 05:52:31,0.02,0.24,0.00,24.66,28.43,30.71,9.49,38.61,1017.10,2035.08,3344.04,3252.05,3531.12,499.88,494.14,17.40,0000 0000 0000 0000 000000
2014-07-25 05:57:32,-0.00,0.24,0.00,24.69,28.46,30.74,9.56,38.62,1017.11,2035.03,3343.97,3251.99,3531.00,500.15,494.35,17.44,0000 0000 0000 0000 000000
2014-07-25 06:02:33,0.05,0.24,0.00,24.72,28.49,30.77,9.58,38.70,1017.11,2035.00,3343.21,3251.48,3530.53,500.44,494.47,17.48,0000 0000 0000 0000 000000
2014-07-25 06:07:35,0.01,0.24,0.00,24.75,28.51,30.79,9.47,38.59,1017.11,2035.00,3342.77,3251.00,3530.00,499.98,494.03,17.52,0000 0000 0000 0000 000000
2014-07-25 06:12:36,0.04,0.24,0.00,24.77,28.54,30.82,9.48,38.40,1017.11,2034.99,3342.07,3250.55,3529.56,499.88,493.94,17.57,0000 0000 0000 0000 000000
2014-07-25 06:17:37,0.01,0.24,0.00,24.81,28.57,30.86,9.41,38.31,1017.11,2034.98,3341.83,3250.03,3529.03,499.68,493.76,17.61,0000 0000 0000 0000 000000
2014-07-25 06:22:38,0.00,0.24,0.00,24.84,28.61,30.89,9.51,38.43,1017.12,2034.91,3341.10,3249.97,3528.98,500.41,494.33,17.65,0000 0000 0000 0000 000000
2014-07-25 06:27:39,0.01,0.24,0.00,24.87,28.63,30.91,9.47,38.48,1017.12,2034.75,3341.01,3249.71,3528.67,500.04,493.72,17.69,0000 0000 0000 0000 000000
2014-07-25 06:32:40,-0.02,0.24,0.00,24.88,28.66,30.94,9.53,38.39,1017.12,2034.43,3340.98,3249.14,3528.08,500.29,494.10,17.73,0000 0000 0000 0000 000000
2014-07-25 06:37:41,-0.02,0.24,0.00,24.90,28.69,30.98,9.48,38.38,1017.13,2034.08,3340.63,3249.00,3528.00,499.80,493.43,17.78,0000 0000 0000 0000 000000
2014-07-25 06:42:42,0.00,0.24,0.00,24.94,28.72,31.01,9.45,38.58,1017.13,2034.00,3340.07,3248.97,3527.88,500.10,493.80,17.82,0000 0000 0000 0000 000000
2014-07-25 06:47:43,0.01,0.24,0.00,24.96,28.75,31.03,9.46,38.40,1017.19,2034.00,3340.00,3248.75,3527.33,499.92,493.74,17.86,0000 0000 0000 0000 000000
2014-07-25 06:52:44,0.03,0.24,0.00,24.99,28.78,31.05,9.45,38.47,1017.38,2034.00,3339.76,3248.10,3527.02,499.82,493.59,17.90,0000 0000 0000 0000 000000
2014-07-25 06:57:46,0.01,0.24,0.00,25.00,28.81,31.09,9.50,38.62,1017.54,2033.99,3339.09,3248.00,3527.00,500.20,493.94,17.94,0000 0000 0000 0000 000000
2014-07-25 07:02:47,-0.00,0.24,0.00,25.01,28.84,31.12,9.44,38.38,1017.53,2033.98,3339.04,3248.00,3526.93,500.11,493.72,17.98,0000 0000 0000 0000 000000
2014-07-25 07:07:48,0.00,0.24,0.00,25.03,28.87,31.16,9.56,38.49,1017.51,2033.87,3339.00,3247.85,3526.26,500.38,494.10,18.03,0000 0000 0000 0000 000000
2014-07-25 07:12:49,-0.04,0.24,0.00,25.09,28.90,31.18,9.45,38.39,1017.43,2033.37,3338.98,3247.15,3526.01,500.00,493.67,18.07,0000 0000 0000 0000 000000
2014-07-25 07:17:50,-0.01,0.24,0.00,25.13,28.93,31.20,9.41,38.19,1017.53,2033.04,3338.78,3247.00,3525.92,499.83,493.44,18.11,0000 0000 0000 0000 000000
2014-07-25 07:22:52,0.02,0.24,0.00,25.19,28.96,31.24,9.47,38.55,1017.56,2033.00,3338.39,3246.99,3525.43,500.07,493.56,18.15,0000 0000 0000 0000 000000
2014-07-25 07:27:53,0.02,0.24,0.00,25.21,28.99,31.27,9.45,38.34,1017.54,2033.00,3338.02,3246.70,3525.03,500.10,493.41,18.19,0000 0000 0000 0000 000000
2014-07-25 07:32:54,0.01,0.24,0.00,25.24,29.01,31.29,9.48,38.39,1017.56,2032.99,3338.00,3246.24,3525.00,499.96,493.19,18.24,0000 0000 0000 0000 000000
2014-07-25 07:37:55,0.00,0.24,0.00,25.27,29.05,31.32,9.42,38.48,1017.58,2032.97,3337.98,3246.03,3524.99,499.76,493.29,18.28,0000 0000 0000 0000 000000
2014-07-25 07:42:56,-0.01,0.24,0.00,25.28,29.07,31.36,9.46,38.38,1017.59,2032.85,3337.91,3246.00,3524.67,499.92,493.31,18.32,0000 0000 0000 0000 000000
2014-07-25 07:47:57,-0.04,0.24,0.00,25.29,29.11,31.39,9.40,38.35,1017.59,2032.34,3337.31,3245.97,3524.09,500.05,493.48,18.36,0000 0000 0000 0000 000000
2014-07-25 07:52:58,-0.00,0.24,0.00,25.32,29.13,31.41,9.52,38.48,1017.59,2032.08,3337.05,3245.66,3524.00,500.19,493.49,18.40,0000 0000 0000 0000 000000
2014-07-25 07:57:59,0.01,0.24,0.00,25.33,29.16,31.44,9.47,38.31,1017.59,2032.01,3337.01,3245.11,3523.98,500.25,493.46,18.45,0000 0000 0000 0000 000000
2014-07-25 08:03:00,0.00,0.24,0.00,25.38,29.20,31.47,9.42,38.31,1017.59,2032.00,3337.00,3245.01,3523.64,500.00,493.29,18.49,0000 0000 0000 0000 000000
2014-07-25 08:08:01,0.02,0.24,0.00,25.44,29.22,31.50,9.46,38.38,1017.59,2032.00,3336.52,3244.96,3523.08,500.28,493.38,18.53,0000 0000 0000 0000 000000
2014-07-25 08:13:01,0.02,0.24,0.00,25.46,29.26,31.53,9.45,38.39,1017.59,2031.99,3336.04,3244.50,3523.00,499.97,493.06,18.57,0000 0000 0000 0000 000000
2014-07-25 08:18:02,0.01,0.24,0.00,25.48,29.29,31.55,9.52,38.46,1017.59,2031.97,3336.00,3244.06,3522.82,499.72,492.81,18.61,0000 0000 0000 0000 000000
2014-07-25 08:23:03,-0.01,0.24,0.00,25.51,29.31,31.59,9.54,38.60,1017.61,2031.84,3335.98,3244.00,3522.15,500.00,492.97,18.66,0000 0000 0000 0000 000000
2014-07-25 08:28:04,-0.05,0.24,0.00,25.53,29.35,31.62,9.48,38.35,1017.61,2031.32,3335.71,3243.95,3522.02,500.06,492.82,18.70,0000 0000 0000 0000 000000
2014-07-25 08:33:05,0.01,0.24,0.00,25.55,29.37,31.64,9.50,38.38,1017.61,2031.05,3335.06,3243.36,3521.93,500.24,493.18,18.74,0000 0000 0000 0000 000000
2014-07-25 08:38:06,0.01,0.24,0.00,25.57,29.40,31.67,9.54,38.35,1017.63,2031.01,3335.00,3243.03,3521.33,500.02,492.97,18.78,0000 0000 0000 0000 000000
2014-07-25 08:43:08,0.00,0.24,0.00,25.59,29.43,31.70,9.49,38.38,1017.69,2031.00,3334.96,3243.00,3521.03,499.97,492.88,18.82,0000 0000 0000 0000 000000
2014-07-25 08:48:09,0.02,0.24,0.00,25.62,29.46,31.73,9.48,38.37,1017.93,2030.97,3334.35,3242.78,3520.96,500.03,492.91,18.86,0000 0000 0000 0000 000000
2014-07-25 08:53:10,0.04,0.25,0.00,25.66,29.49,31.75,9.48,38.42,1018.04,2030.74,3333.45,3241.56,3519.93,500.20,493.11,18.91,0000 0000 0000 0000 000000
2014-07-25 08:58:11,-0.02,0.25,0.00,25.69,29.51,31.78,9.48,38.34,1018.07,2030.37,3333.03,3241.04,3519.19,500.21,493.25,18.95,0000 0000 0000 0000 000000
2014-07-25 09:03:12,-0.00,0.24,0.00,25.71,29.55,31.81,9.40,38.51,1018.07,2030.15,3333.00,3241.00,3519.01,499.92,492.83,18.99,0000 0000 0000 0000 000000
2014-07-25 09:08:13,-0.01,0.24,0.00,25.74,29.57,31.84,9.43,38.32,1018.08,2030.03,3332.89,3240.97,3519.00,500.17,492.94,19.03,0000 0000 0000 0000 000000
2014-07-25 09:13:14,0.03,0.24,0.00,25.75,29.60,31.86,9.44,38.40,1018.08,2030.00,3332.28,3240.63,3518.91,499.59,492.41,19.07,0000 0000 0000 0000 000000
2014-07-25 09:18:15,0.02,0.25,0.00,25.76,29.63,31.89,9.47,38.27,1018.08,2030.00,3332.00,3240.07,3518.29,499.85,492.66,19.12,0000 0000 0000 0000 000000
2014-07-25 09:23:15,0.00,0.25,0.00,25.78,29.65,31.93,9.42,38.33,1018.09,2030.00,3331.96,3240.00,3518.02,499.86,492.61,19.16,0000 0000 0000 0000 000000
2014-07-25 09:28:16,0.01,0.25,0.00,25.80,29.68,31.95,9.43,38.53,1018.09,2029.98,3331.48,3239.99,3517.99,499.80,492.46,19.20,0000 0000 0000 0000 000000
2014-07-25 09:33:17,0.02,0.25,0.00,25.82,29.70,31.98,9.45,38.52,1018.10,2029.97,3331.02,3239.74,3517.86,500.03,492.76,19.24,0000 0000 0000 0000 000000
2014-07-25 09:38:18,0.03,0.25,0.00,25.82,29.72,31.99,9.50,38.42,1018.12,2029.91,3330.80,3239.05,3517.11,499.79,492.56,19.28,0000 0000 0000 0000 000000
2014-07-25 09:43:19,-0.02,0.25,0.00,25.85,29.75,32.01,9.43,38.33,1018.24,2029.63,3330.11,3238.98,3516.99,499.84,492.77,19.33,0000 0000 0000 0000 000000
2014-07-25 09:48:21,0.02,0.25,0.00,25.85,29.77,32.03,9.42,38.26,1018.20,2029.54,3329.99,3238.56,3516.64,500.19,493.03,19.37,0000 0000 0000 0000 000000
2014-07-25 09:53:22,-0.02,0.25,0.00,25.85,29.78,32.06,9.39,38.42,1018.12,2029.27,3329.78,3238.06,3516.06,499.91,492.63,19.41,0000 0000 0000 0000 000000
2014-07-25 09:58:23,0.01,0.25,0.00,25.88,29.80,32.08,9.53,38.31,1018.10,2029.07,3329.08,3237.99,3515.98,499.93,492.64,19.45,0000 0000 0000 0000 000000
2014-07-25 10:03:24,0.00,0.25,0.00,25.91,29.82,32.10,9.47,38.29,1018.12,2029.01,3329.00,3237.88,3515.73,499.71,492.28,19.49,0000 0000 0000 0000 000000
2014-07-25 10:08:25,0.03,0.25,0.00,25.91,29.85,32.12,9.56,38.49,1018.12,2029.00,3328.97,3237.20,3515.12,500.13,492.71,19.54,0000 0000 0000 0000 000000
2014-07-25 10:13:26,0.01,0.25,0.00,25.92,29.87,32.14,9.57,38.42,1018.10,2029.00,3328.53,3237.01,3514.99,500.48,493.12,19.58,0000 0000 0000 0000 000000
2014-07-25 10:18:27,0.01,0.25,0.00,25.95,29.89,32.16,9.50,38.39,1018.11,2028.99,3328.14,3236.99,3514.90,500.52,492.96,19.62,0000 0000 0000 0000 000000
2014-07-25 10:23:28,0.01,0.25,0.00,25.98,29.91,32.18,9.50,38.38,1018.11,2028.96,3328.00,3236.93,3514.40,500.18,492.43,19.66,0000 0000 0000 0000 000000
2014-07-25 10:28:30,0.00,0.25,0.00,26.00,29.93,32.21,9.51,38.33,1018.12,2028.83,3328.00,3236.60,3514.09,500.25,492.69,19.70,0000 0000 0000 0000 000000
2014-07-25 10:33:31,-0.02,0.25,0.00,26.01,29.95,32.23,9.47,38.23,1018.11,2028.61,3327.98,3236.09,3514.00,500.12,492.50,19.74,0000 0000 0000 0000 000000
2014-07-25 10:38:31,-0.03,0.25,0.00,26.01,29.97,32.24,9.49,38.38,1018.16,2028.20,3327.94,3236.01,3513.99,499.93,492.38,19.79,0000 0000 0000 0000 000000
2014-07-25 10:43:32,0.00,0.25,0.00,26.01,30.00,32.27,9.44,38.26,1018.35,2028.04,3327.41,3236.00,3513.82,499.65,492.21,19.83,0000 0000 0000 0000 000000
2014-07-25 10:48:33,0.01,0.25,0.00,26.03,30.01,32.28,9.45,38.34,1018.45,2028.01,3327.08,3235.97,3513.18,500.11,492.54,19.87,0000 0000 0000 0000 000000
2014-07-25 10:53:34,0.01,0.25,0.00,26.04,30.02,32.30,9.41,38.32,1018.56,2028.00,3327.01,3235.84,3513.09,499.71,492.31,19.91,0000 0000 0000 0000 000000
2014-07-25 10:58:35,0.05,0.25,0.00,26.04,30.05,32.32,9.45,38.29,1018.56,2028.00,3326.54,3235.10,3512.63,499.93,492.53,19.95,0000 0000 0000 0000 000000
2014-07-25 11:03:36,0.06,0.25,0.00,26.04,30.06,32.34,9.59,38.51,1018.57,2028.00,3325.23,3234.15,3511.68,500.49,492.94,20.00,0000 0000 0000 0000 000000
2014-07-25 11:08:37,0.09,0.26,0.00,26.07,30.07,32.36,9.47,38.41,1018.57,2027.98,3323.74,3232.97,3510.47,499.87,492.41,20.04,0000 0000 0000 0000 000000
2014-07-25 11:13:38,0.06,0.26,0.00,26.06,30.10,32.37,9.44,38.43,1018.57,2027.92,3322.36,3231.95,3509.28,499.73,492.28,20.08,0000 0000 0000 0000 000000
2014-07-25 11:18:40,0.01,0.26,0.00,26.05,30.10,32.40,9.50,38.49,1018.57,2027.69,3321.86,3231.12,3508.72,500.09,492.47,20.12,0000 0000 0000 0000 000000
2014-07-25 11:23:41,0.02,0.26,0.00,26.06,30.12,32.39,9.47,38.39,1018.57,2027.47,3321.16,3231.00,3508.09,500.08,492.54,20.16,0000 0000 0000 0000 000000
2014-07-25 11:28:42,-0.01,0.26,0.00,26.08,30.13,32.42,9.43,38.63,1018.57,2027.16,3320.93,3230.51,3507.84,500.41,492.82,20.21,0000 0000 0000 0000 000000
2014-07-25 11:33:43,0.03,0.26,0.00,26.04,30.15,32.44,9.51,38.38,1018.57,2027.04,3320.11,3229.98,3507.04,500.29,492.86,20.25,0000 0000 0000 0000 000000
2014-07-25 11:38:44,0.01,0.26,0.00,25.91,30.15,32.47,9.51,38.67,1018.58,2027.03,3319.97,3229.53,3506.92,500.24,493.04,20.29,0000 0000 0000 0000 000000
2014-07-25 11:43:45,0.02,0.27,0.00,25.85,30.15,32.48,9.50,38.67,1018.57,2027.01,3319.76,3229.11,3506.57,500.38,493.20,20.33,0000 0000 0000 0000 000000
2014-07-25 11:48:46,0.01,0.27,0.00,25.84,30.15,32.47,9.46,38.68,1018.57,2027.01,3319.37,3229.03,3506.24,500.21,492.91,20.37,0000 0000 0000 0000 000000
2014-07-25 11:53:47,0.00,0.27,0.00,25.82,30.15,32.47,9.50,38.58,1018.57,2027.02,3319.11,3229.01,3506.12,500.17,493.12,20.41,0000 0000 0000 0000 000000
2014-07-25 11:58:49,0.00,0.27,0.00,25.81,30.15,32.45,9.52,38.66,1018.57,2027.01,3319.05,3229.02,3506.05,500.34,493.20,20.46,0000 0000 0000 0000 000000
2014-07-25 12:03:50,0.00,0.27,0.00,25.82,30.15,32.45,9.52,38.62,1018.57,2027.01,3319.01,3229.00,3506.01,500.65,493.46,20.50,0000 0000 0000 0000 000000
2014-07-25 12:08:51,0.00,0.27,0.00,25.82,30.15,32.43,9.48,38.46,1018.57,2027.03,3319.00,3229.00,3506.00,499.94,492.83,20.54,0000 0000 0000 0000 000000
2014-07-25 12:13:52,0.00,0.27,0.00,25.79,30.15,32.41,9.53,38.67,1018.57,2027.02,3318.83,3228.97,3506.00,500.23,493.18,20.58,0000 0000 0000 0000 000000
2014-07-25 12:18:53,0.01,0.27,0.00,25.78,30.15,32.42,9.54,38.73,1018.57,2027.02,3318.28,3228.89,3505.96,500.22,493.16,20.62,0000 0000 0000 0000 000000
2014-07-25 12:23:54,0.01,0.27,0.00,25.78,30.15,32.42,9.46,38.53,1018.57,2027.02,3318.07,3228.72,3505.91,499.81,492.72,20.67,0000 0000 0000 0000 000000
2014-07-25 12:28:55,0.00,0.27,0.00,25.77,30.15,32.40,9.51,38.59,1018.57,2027.03,3318.05,3228.72,3505.91,500.09,493.15,20.71,0000 0000 0000 0000 000000
2014-07-25 12:33:56,0.00,0.27,0.00,25.76,30.14,32.40,9.44,38.58,1018.57,2027.03,3318.00,3228.56,3505.77,500.20,493.18,20.75,0000 0000 0000 0000 000000
2014-07-25 12:38:57,0.02,0.27,0.00,25.76,30.13,32.40,9.49,38.58,1018.57,2027.02,3318.00,3228.22,3505.37,499.91,493.06,20.79,0000 0000 0000 0000 000000
2014-07-25 12:43:58,0.01,0.27,0.00,25.76,30.12,32.41,9.51,38.77,1018.57,2027.04,3318.00,3228.07,3505.13,500.18,493.18,20.83,0000 0000 0000 0000 000000
2014-07-25 12:48:59,0.01,0.27,0.00,25.73,30.12,32.40,9.52,38.62,1018.57,2027.07,3317.95,3228.00,3505.00,500.36,493.31,20.88,0000 0000 0000 0000 000000
2014-07-25 12:54:01,0.00,0.27,0.00,25.72,30.12,32.38,9.49,38.66,1018.57,2027.07,3317.77,3228.00,3505.00,499.92,493.13,20.92,0000 0000 0000 0000 000000
2014-07-25 12:59:01,0.02,0.27,0.00,25.73,30.12,32.37,9.45,38.67,1018.58,2027.09,3317.21,3227.97,3504.88,499.93,493.25,20.96,0000 0000 0000 0000 000000